This is the latest recevied weather packets stored in our database for station/object PA0HHN. If no packets are shown the sender has not sent any weather packets the latest 10 day(s).
| Time | Temp. | Humidity | Pressure | Rain* | Wind** | Luminosity | Snow |
|---|---|---|---|---|---|---|---|
| 1777587301 | 12.78° C | 58% | 1022.2 hPa | - | - | - | - |
| 1777586402 | 12.78° C | 57% | 1022.1 hPa | - | - | - | - |
| 1777585501 | 12.78° C | 57% | 1022 hPa | - | - | - | - |
| 1777584601 | 12.78° C | 55% | 1022.2 hPa | - | - | - | - |
| 1777583701 | 12.78° C | 54% | 1022.1 hPa | - | - | - | - |
| 1777582803 | 13.89° C | 53% | 1022.3 hPa | - | - | - | - |
| 1777581902 | 13.89° C | 52% | 1022.1 hPa | - | - | - | - |
| 1777581004 | 13.89° C | 52% | 1022 hPa | - | - | - | - |
| 1777580102 | 13.89° C | 51% | 1022.1 hPa | - | - | - | - |
| 1777574703 | 17.22° C | 44% | 1022 hPa | - | - | - | - |
| 1777573802 | 17.22° C | 42% | 1022 hPa | - | - | - | - |
| 1777572901 | 17.78° C | 41% | 1021.9 hPa | - | - | - | - |
| 1777572003 | 17.78° C | 40% | 1021.4 hPa | - | - | - | - |
| 1777571102 | 18.89° C | 37% | 1021.9 hPa | - | - | - | - |
| 1777570201 | 18.89° C | 38% | 1022 hPa | - | - | - | - |
| 1777569301 | 18.89° C | 36% | 1021.9 hPa | - | - | - | - |
| 1777568401 | 18.89° C | 35% | 1021.7 hPa | - | - | - | - |
| 1777567503 | 18.89° C | 35% | 1021.9 hPa | - | - | - | - |
| 1777566602 | 18.89° C | 35% | 1021.9 hPa | - | - | - | - |
| 1777565704 | 18.89° C | 34% | 1021.9 hPa | - | - | - | - |
| 1777564802 | 18.89° C | 33% | 1021.9 hPa | - | - | - | - |
| 1777563901 | 20° C | 32% | 1021.8 hPa | - | - | - | - |
| 1777563002 | 20° C | 31% | 1022 hPa | - | - | - | - |
| 1777562102 | 20° C | 30% | 1021.8 hPa | - | - | - | - |
| 1777561201 | 20° C | 31% | 1022.3 hPa | - | - | - | - |
* Rain since midnight (hover to see other rain measurements)
** Current wind speed in m/s (hover to see current wind gust speed)